Regional Weather Roundup
Issued by NWS

Home | Current Version | Previous Version | Text Only | Print | Product List | Glossary Off
Versions: 1 2 3 4 5 6 7 8 9 10 11 12 13 14 15 16 17 18 19 20 21 22 23 24 25 26 27 28 29 30 31 32 33 34 35 36 37 38 39 40 41 42 43 44 45 46 47 48 49 50

000
ASUS45 KCYS 301710
RWRWY

WYOMING REGIONAL WEATHER ROUNDUP
NATIONAL WEATHER SERVICE CHEYENNE WY
1100 AM MDT SAT MAY 30 2015

NOTE:  "FAIR" INDICATES FEW OR NO CLOUDS BELOW 12,000 FEET
WITH NO SIGNIFICANT WEATHER AND/OR OBSTRUCTIONS TO VISIBILITY.

WYZ001-301800-
YELLOWSTONE NATIONAL PARK

CITY           SKY/WX    TMP DP  RH WIND       PRES   REMARKS
LK YELLOWSTONE   N/A     51  41  68 VRB3      30.27F
W YELLOWSTONE  NOT AVBL

$$
WYZ002>013-054>058-071-098>099-301800-
NORTHERN WYOMING

CITY           SKY/WX    TMP DP  RH WIND       PRES   REMARKS
JACKSON        SUNNY     57  45  62 S6        30.23F
CODY           FAIR      68  45  42 S9        30.10F
GREYBULL       FAIR      71  46  40 S12G18    30.08F
WORLAND        FAIR      69  47  45 SE6       30.09F
SHERIDAN       FAIR      61  49  64 CALM      30.10F
BUFFALO        FAIR      62  49  62 SE6       30.13F
GILLETTE       PTSUNNY   55  47  74 S21G31    30.16F
HULETT         FAIR      63  45  51 SW6       30.19F
NEWCASTLE      FAIR      54  41  62 SE17      30.24S

$$
WYZ014>020-022>026-101>103-301800-
CENTRAL WYOMING

CITY           SKY/WX    TMP DP  RH WIND       PRES   REMARKS
BIG PINEY      FAIR      56  41  57 CALM      30.28F
PINEDALE       FAIR      59  41  51 S5        30.29S
DUBOIS         FAIR      61  32  33 NW15G25   30.23F
LANDER         FAIR      63  48  58 VRB3      30.17F
RIVERTON       FAIR      60  48  64 VRB3      30.19F
CASPER         FAIR      65  45  48 S13       30.19F
DOUGLAS        FAIR      58  48  69 SE13      30.21F

$$
WYZ021-027>030-104>119-301800-
SOUTHERN WYOMING

CITY           SKY/WX    TMP DP  RH WIND       PRES   REMARKS
EVANSTON       FAIR      64  40  41 SW8       30.27S
KEMMERER       FAIR      61  41  48 S6        30.29F
FORT BRIDGER   SUNNY     59  46  63 CALM      30.31S
ROCK SPRINGS   FAIR      60  43  53 VRB5      30.28S
DIXON          FAIR      64  40  41 SW8       30.32S
RAWLINS        FAIR      64  39  39 W14       30.28F
SARATOGA       FAIR      61  36  39 CALM      30.31S
LARAMIE        FAIR      59  36  42 SW6       30.30S
CHEYENNE       FAIR      60  42  51 VRB6      30.28S
TORRINGTON     FAIR      59  50  72 E13       30.23F
PINE BLUFFS    FAIR      59  46  63 S8        30.28S

$$



USA.gov is the U.S. government's official web portal to all federal, state and local government web resources and services.